When you browse on this site, cookies collect data to enhance your experience and personalize the content and advertising you see.
Visit our Privacy Policy to learn more. By continuing to use the site, you agree to this use of cookies and data.
  • In Austria
  • List of Countries
  • For 7 days
  • Water Temperature
  • Weather Map
  • News
  • Weather Widgets
  • user-avatar
    Login

    Hourly Weather Abha

    Today, 6 April, Monday

    Time Temperature Precipitation Wind Pressure Humidity
    00:00 +26°C° 0 mm 2 mps 646 mmHg 57%
    01:00 +26°C° 0 mm 1 mps 645 mmHg 56%
    02:00 +25°C° 0 mm 1 mps 644 mmHg 56%
    03:00 +25°C° 0 mm 1 mps 644 mmHg 54%
    04:00 +24°C° 0 mm 1 mps 644 mmHg 53%
    05:00 +24°C° 0 mm 1 mps 644 mmHg 52%
    06:00 +24°C° 0 mm 1 mps 644 mmHg 52%
    07:00 +25°C° 0 mm 1 mps 645 mmHg 47%
    08:00 +26°C° 0 mm 1 mps 646 mmHg 43%
    09:00 +27°C° 0 mm 2 mps 647 mmHg 38%
    10:00 +29°C° 0 mm 2 mps 647 mmHg 35%
    11:00 +30°C° 0 mm 3 mps 647 mmHg 33%
    12:00 +32°C° 0 mm 4 mps 647 mmHg 30%
    13:00 +32°C° 0 mm 4 mps 646 mmHg 32%
    14:00 +30°C° 0 mm 4 mps 646 mmHg 35%
    15:00 +30°C° 0 mm 3 mps 645 mmHg 38%
    16:00 +29°C° 0.2 mm 3 mps 645 mmHg 44%
    17:00 +28°C° 0.2 mm 3 mps 645 mmHg 49%
    18:00 +27°C° 0.2 mm 3 mps 644 mmHg 55%
    19:00 +27°C° 0.1 mm 2 mps 645 mmHg 55%
    20:00 +26°C° 0.1 mm 2 mps 645 mmHg 56%
    21:00 +26°C° 0.1 mm 1 mps 645 mmHg 57%
    22:00 +26°C° 0 mm 1 mps 645 mmHg 56%
    23:00 +26°C° 0 mm 1 mps 645 mmHg 56%

    Tomorrow, 7 April, Tuesday

    Time Temperature Precipitation Wind Pressure Humidity
    00:00 +26°C° 0 mm 1 mps 645 mmHg 56%
    01:00 +26°C° 0 mm 1 mps 645 mmHg 56%
    02:00 +25°C° 0 mm 1 mps 644 mmHg 57%
    03:00 +25°C° 0 mm 1 mps 644 mmHg 57%
    04:00 +25°C° 0 mm 1 mps 644 mmHg 55%
    05:00 +24°C° 0 mm 1 mps 644 mmHg 54%
    06:00 +24°C° 0 mm 1 mps 644 mmHg 52%
    07:00 +26°C° 0 mm 1 mps 645 mmHg 46%
    08:00 +27°C° 0 mm 2 mps 645 mmHg 39%
    09:00 +28°C° 0 mm 2 mps 646 mmHg 33%
    10:00 +29°C° 0 mm 3 mps 646 mmHg 30%
    11:00 +30°C° 0 mm 3 mps 646 mmHg 28%
    12:00 +31°C° 0 mm 3 mps 646 mmHg 25%
    13:00 +31°C° 0 mm 3 mps 645 mmHg 26%
    14:00 +31°C° 0 mm 3 mps 645 mmHg 28%
    15:00 +32°C° 0 mm 4 mps 644 mmHg 29%
    16:00 +30°C° 0 mm 3 mps 644 mmHg 36%
    17:00 +29°C° 0 mm 3 mps 643 mmHg 43%
    18:00 +27°C° 0 mm 3 mps 643 mmHg 49%
    19:00 +27°C° 0.1 mm 2 mps 644 mmHg 50%
    20:00 +27°C° 0.1 mm 2 mps 644 mmHg 52%
    21:00 +26°C° 0.1 mm 1 mps 645 mmHg 53%
    22:00 +26°C° 0 mm 1 mps 644 mmHg 53%
    23:00 +24°C° 0 mm 0 mps 644 mmHg 53%

    Day after tomorrow, 8 April, Wednesday

    Time Temperature Precipitation Wind Pressure Humidity
    00:00 +24°C° 0 mm 0 mps 644 mmHg 53%
    01:00 +24°C° 0 mm 0 mps 644 mmHg 54%
    02:00 +23°C° 0 mm 0 mps 643 mmHg 54%
    03:00 +23°C° 0 mm 0 mps 643 mmHg 54%
    04:00 +23°C° 0 mm 0 mps 643 mmHg 52%
    05:00 +22°C° 0 mm 0 mps 643 mmHg 50%
    06:00 +24°C° 0 mm 1 mps 643 mmHg 49%
    07:00 +26°C° 0 mm 1 mps 644 mmHg 42%
    08:00 +27°C° 0 mm 1 mps 645 mmHg 36%
    09:00 +29°C° 0 mm 2 mps 645 mmHg 29%
    10:00 +30°C° 0 mm 2 mps 645 mmHg 27%
    11:00 +31°C° 0 mm 3 mps 645 mmHg 25%
    12:00 +33°C° 0 mm 4 mps 645 mmHg 24%
    13:00 +32°C° 0 mm 4 mps 645 mmHg 27%
    14:00 +32°C° 0 mm 4 mps 644 mmHg 31%
    15:00 +32°C° 0 mm 4 mps 644 mmHg 34%
    16:00 +30°C° 0 mm 4 mps 643 mmHg 42%
    17:00 +29°C° 0 mm 3 mps 643 mmHg 49%
    18:00 +27°C° 0 mm 3 mps 642 mmHg 56%
    19:00 +27°C° 0.1 mm 2 mps 643 mmHg 57%
    20:00 +27°C° 0.1 mm 2 mps 643 mmHg 59%
    21:00 +26°C° 0.1 mm 1 mps 644 mmHg 60%
    22:00 +26°C° 0 mm 1 mps 643 mmHg 59%
    23:00 +26°C° 0 mm 1 mps 643 mmHg 58%

    9 April, Thursday

    Time Temperature Precipitation Wind Pressure Humidity
    00:00 +26°C° 0 mm 1 mps 643 mmHg 57%
    01:00 +23°C° 0 mm 0 mps 643 mmHg 58%
    02:00 +23°C° 0 mm 0 mps 642 mmHg 58%
    03:00 +23°C° 0 mm 0 mps 642 mmHg 58%
    04:00 +22°C° 0 mm 0 mps 642 mmHg 57%
    05:00 +22°C° 0 mm 0 mps 642 mmHg 57%
    06:00 +22°C° 0 mm 0 mps 642 mmHg 56%
    07:00 +26°C° 0 mm 1 mps 643 mmHg 48%
    08:00 +27°C° 0 mm 1 mps 644 mmHg 40%
    09:00 +29°C° 0 mm 2 mps 645 mmHg 32%
    10:00 +30°C° 0 mm 3 mps 645 mmHg 31%
    11:00 +30°C° 0 mm 4 mps 645 mmHg 29%
    12:00 +32°C° 0 mm 5 mps 645 mmHg 27%
    13:00 +32°C° 0 mm 4 mps 644 mmHg 31%
    14:00 +30°C° 0 mm 4 mps 643 mmHg 36%
    15:00 +30°C° 0 mm 4 mps 643 mmHg 40%
    16:00 +29°C° 0 mm 4 mps 643 mmHg 45%
    17:00 +28°C° 0 mm 3 mps 642 mmHg 50%
    18:00 +27°C° 0 mm 3 mps 642 mmHg 54%
    19:00 +27°C° 0 mm 2 mps 642 mmHg 55%
    20:00 +27°C° 0 mm 2 mps 643 mmHg 57%
    21:00 +26°C° 0 mm 1 mps 643 mmHg 58%
    22:00 +26°C° 0 mm 1 mps 643 mmHg 57%
    23:00 +24°C° 0 mm 0 mps 643 mmHg 56%

    10 April, Friday

    Time Temperature Precipitation Wind Pressure Humidity
    00:00 +24°C° 0 mm 0 mps 643 mmHg 55%
    01:00 +23°C° 0 mm 0 mps 642 mmHg 57%
    02:00 +23°C° 0 mm 0 mps 642 mmHg 59%
    03:00 +22°C° 0 mm 0 mps 641 mmHg 61%
    04:00 +22°C° 0 mm 0 mps 641 mmHg 62%
    05:00 +24°C° 0 mm 1 mps 642 mmHg 63%
    06:00 +24°C° 0 mm 1 mps 642 mmHg 64%
    07:00 +25°C° 0 mm 1 mps 643 mmHg 54%
    08:00 +27°C° 0 mm 2 mps 644 mmHg 44%
    09:00 +28°C° 0 mm 2 mps 644 mmHg 34%
    10:00 +29°C° 0 mm 3 mps 644 mmHg 33%
    11:00 +29°C° 0 mm 3 mps 644 mmHg 31%
    12:00 +30°C° 0 mm 4 mps 644 mmHg 29%
    13:00 +30°C° 0 mm 4 mps 644 mmHg 32%
    14:00 +30°C° 0 mm 4 mps 643 mmHg 35%
    15:00 +30°C° 0 mm 4 mps 642 mmHg 38%
    16:00 +29°C° 0 mm 4 mps 642 mmHg 43%
    17:00 +28°C° 0 mm 3 mps 642 mmHg 48%
    18:00 +27°C° 0 mm 2 mps 642 mmHg 53%
    19:00 +27°C° 0 mm 2 mps 642 mmHg 55%
    20:00 +26°C° 0 mm 1 mps 642 mmHg 57%
    21:00 +26°C° 0 mm 1 mps 643 mmHg 59%
    22:00 +26°C° 0 mm 1 mps 643 mmHg 59%
    23:00 +26°C° 0 mm 1 mps 642 mmHg 59%

    11 April, Saturday

    Time Temperature Precipitation Wind Pressure Humidity
    00:00 +26°C° 0 mm 1 mps 642 mmHg 59%
    01:00 +25°C° 0 mm 1 mps 642 mmHg 60%
    02:00 +25°C° 0 mm 1 mps 642 mmHg 62%
    03:00 +24°C° 0 mm 1 mps 641 mmHg 63%
    04:00 +24°C° 0 mm 1 mps 641 mmHg 64%
    05:00 +23°C° 0 mm 1 mps 642 mmHg 64%
    06:00 +22°C° 0 mm 1 mps 642 mmHg 64%
    07:00 +24°C° 0 mm 1 mps 643 mmHg 56%
    08:00 +25°C° 0 mm 2 mps 643 mmHg 48%
    09:00 +26°C° 0 mm 3 mps 644 mmHg 40%
    10:00 +27°C° 0 mm 3 mps 644 mmHg 38%
    11:00 +28°C° 0 mm 4 mps 644 mmHg 37%
    12:00 +29°C° 0 mm 4 mps 644 mmHg 35%
    13:00 +29°C° 0 mm 4 mps 644 mmHg 36%
    14:00 +29°C° 0 mm 4 mps 643 mmHg 38%
    15:00 +29°C° 0 mm 4 mps 642 mmHg 40%
    16:00 +28°C° 0 mm 4 mps 642 mmHg 45%
    17:00 +27°C° 0 mm 3 mps 642 mmHg 49%
    18:00 +27°C° 0 mm 3 mps 642 mmHg 54%
    19:00 +26°C° 0 mm 2 mps 642 mmHg 56%
    20:00 +25°C° 0 mm 2 mps 642 mmHg 58%
    21:00 +25°C° 0 mm 2 mps 643 mmHg 61%
    22:00 +25°C° 0 mm 1 mps 643 mmHg 61%
    23:00 +24°C° 0 mm 1 mps 643 mmHg 61%
    Show more